"Timestamp","TZ","WindDir_Mean (deg)","WindSpd_Mean (km/h)","WindSpd_Min (km/h)","WindSpd_Max (km/h)","Temp_Mean (deg)","RH_Mean (%)","MSLP_Mean (hPa)","Rain_Acc (mm)","Rain_Intensity (mm/h)","Hail_Acc (hits/cm2)","Hail_Intensity (hits/cm2hr)","Solar_Mean (W/m2)"
2022/03/21 00:00:00.001,n,263,2.16,2.16,2.52,21.4,65.300004,1015.52,0,0,0,0,0.020027
2022/03/21 00:01:00.000,n,234,1.08,0.72,1.44,21.4,65.4,1015.52,0,0,0,0,0.016594
2022/03/21 00:02:00.000,n,253,2.16,1.8,2.16,21.4,65.4,1015.52,0,0,0,0,0.020027
2022/03/21 00:03:00.000,n,271,1.8,1.44,1.8,21.4,65.4,1015.52,0,0,0,0,0.019188
2022/03/21 00:04:00.006,n,193,2.16,1.44,2.52,21.4,65.4,1015.52,0,0,0,0,0.019188
2022/03/21 00:05:00.003,n,257,1.8,1.44,3.24,21.4,65.4,1015.52,0,0,0,0,0.019188
2022/03/21 00:06:00.000,n,259,2.16,1.8,2.52,21.4,65.5,1015.52,0,0,0,0,0.020027
2022/03/21 00:07:00.000,n,255,2.16,2.16,2.52,21.3,65.5,1015.52,0,0,0,0,0.016594
2022/03/21 00:08:00.010,n,248,2.16,1.8,2.88,21.3,65.6,1015.52,0,0,0,0,0.020905
2022/03/21 00:09:00.008,n,241,2.52,2.16,2.52,21.3,65.6,1015.52,0,0,0,0,0.021782
2022/03/21 00:10:00.000,n,244,1.8,1.44,2.16,21.3,65.6,1015.52,0,0,0,0,0.019188
2022/03/21 00:11:00.001,n,273,1.08,1.08,1.44,21.3,65.6,1015.52,0,0,0,0,0.014801
2022/03/21 00:12:00.000,n,228,2.52,2.16,2.88,21.3,65.699996,1015.52,0,0,0,0,0.017433
2022/03/21 00:13:00.000,n,240,1.8,0.72,2.52,21.3,65.699996,1015.52,0,0,0,0,0.020866
2022/03/21 00:14:00.007,n,227,2.52,1.8,3.96,21.3,65.699996,1015.52,0,0,0,0,0.02697
2022/03/21 00:15:00.004,n,183,2.52,1.8,2.52,21.3,65.800004,1015.52,0,0,0,0,0.029602
2022/03/21 00:16:00.001,n,245,2.16,1.8,3.96,21.3,65.800004,1015.52,0,0,0,0,0.028725
2022/03/21 00:17:00.000,n,289,1.8,1.44,2.16,21.3,65.800004,1015.52,0,0,0,0,0.027809
2022/03/21 00:18:00.013,n,294,1.8,1.44,2.16,21.2,66.1,1015.42,0,0,0,0,0.02697
2022/03/21 00:19:00.000,n,182,3.24,2.16,7.2,21.2,66.1,1015.42,0,0,0,0,0.024376
2022/03/21 00:20:00.000,n,308,1.8,1.44,2.16,21.2,66.199996,1015.42,0,0,0,0,0.02697
2022/03/21 00:21:00.004,n,258,4.68,2.16,6.12,21.2,66.5,1015.42,0,0,0,0,0.02697
2022/03/21 00:22:00.002,n,250,3.24,2.88,3.96,21.2,66.5,1015.42,0,0,0,0,0.027809
2022/03/21 00:23:00.000,n,244,3.24,1.44,4.32,21.2,66.6,1015.42,0,0,0,0,0.028725
2022/03/21 00:24:00.000,n,276,4.68,3.96,5.4,21.2,67.2,1015.42,0,0,0,0,0.027809
2022/03/21 00:25:00.010,n,241,2.52,1.8,3.24,21.2,67,1015.42,0,0,0,0,0.026093
2022/03/21 00:26:00.007,n,267,3.24,2.88,3.6,21.1,67.1,1015.42,0,0,0,0,0.026093
2022/03/21 00:27:00.004,n,272,5.4,5.04,6.12,21.1,67.1,1015.42,0,0,0,0,0.024376
2022/03/21 00:28:00.000,n,211,3.6,3.24,4.32,21.1,67.1,1015.42,0,0,0,0,0.025215
2022/03/21 00:29:00.000,n,284,2.16,1.44,2.52,21.1,67.1,1015.42,0,0,0,0,0.025215
2022/03/21 00:30:00.000,n,225,3.24,1.08,4.32,21,67,1015.42,0,0,0,0,0.022621
2022/03/21 00:31:00.000,n,252,2.88,2.52,3.24,21,67,1015.32,0,0,0,0,0.022621
2022/03/21 00:32:00.007,n,303,3.24,1.8,5.04,21,67.3,1015.32,0,0,0,0,0.023499
2022/03/21 00:33:00.005,n,219,2.52,2.16,3.6,21,67,1015.32,0,0,0,0,0.020866
2022/03/21 00:34:00.001,n,306,2.16,1.44,2.88,21,67,1015.32,0,0,0,0,0.024376
2022/03/21 00:35:00.000,n,282,2.16,1.8,2.52,21,66.9,1015.32,0,0,0,0,0.024376
2022/03/21 00:36:00.011,n,254,1.8,1.08,3.24,20.9,66.9,1015.22,0,0,0,0,0.020866
2022/03/21 00:37:00.000,n,211,0.36,0,0.36,20.9,66.800004,1015.22,0,0,0,0,0.020866
2022/03/21 00:38:00.000,n,247,1.8,1.08,2.52,20.9,66.9,1015.22,0,0,0,0,0.020866
2022/03/21 00:39:00.004,n,281,1.08,0.36,1.44,20.9,66.9,1015.22,0,0,0,0,0.021744
2022/03/21 00:40:00.001,n,30,1.08,0.36,1.08,20.9,67.3,1015.22,0,0,0,0,0.020866
2022/03/21 00:41:00.000,n,254,0.72,0.36,1.08,20.9,67.3,1015.22,0,0,0,0,0.022621
2022/03/21 00:42:00.000,n,256,0.36,0.36,1.08,20.9,67.2,1015.22,0,0,0,0,0.020866
2022/03/21 00:43:00.011,n,268,2.88,2.52,2.88,20.9,67,1015.22,0,0,0,0,0.020027
2022/03/21 00:44:00.008,n,260,1.08,0.72,1.44,20.9,66.9,1015.22,0,0,0,0,0.01915
2022/03/21 00:45:00.007,n,263,1.8,1.44,1.8,20.9,67.1,1015.22,0,0,0,0,0.017395
2022/03/21 00:46:00.000,n,289,3.24,2.88,3.96,20.9,68.1,1015.22,0,0,0,0,0.01915
2022/03/21 00:47:00.001,n,259,1.44,1.44,2.16,20.9,67.5,1015.22,0,0,0,0,0.017395
2022/03/21 00:48:00.000,n,78,0.36,0.36,0.72,20.9,67.2,1015.22,0,0,0,0,0.014801
2022/03/21 00:49:00.001,n,262,1.8,1.44,1.8,20.9,67.1,1015.22,0,0,0,0,0.021744
2022/03/21 00:50:00.000,n,286,3.96,3.6,4.32,20.8,67.1,1015.22,0,0,0,0,0.018272
2022/03/21 00:51:00.000,n,251,3.6,1.44,3.96,20.8,67.2,1015.12,0,0,0,0,0.024376
2022/03/21 00:52:00.009,n,265,2.16,2.16,2.88,20.8,67.2,1015.12,0,0,0,0,0.022621
2022/03/21 00:53:00.006,n,268,4.32,0.72,5.4,20.8,67.1,1015.12,0,0,0,0,0.023499
2022/03/21 00:54:00.003,n,250,2.52,1.08,2.88,20.8,67.1,1015.12,0,0,0,0,0.022621
2022/03/21 00:55:00.001,n,289,1.8,1.44,2.16,20.8,67.1,1015.12,0,0,0,0,0.022621
2022/03/21 00:56:00.000,n,276,1.8,1.8,2.16,20.8,67.1,1015.12,0,0,0,0,0.021744
2022/03/21 00:57:00.000,n,267,3.24,2.52,3.24,20.8,67.1,1015.12,0,0,0,0,0.022621
2022/03/21 00:58:00.000,n,260,2.52,2.16,2.88,20.8,67.1,1015.12,0,0,0,0,0.020027
2022/03/21 00:59:00.007,n,271,3.24,2.88,3.6,20.8,67.1,1015.12,0,0,0,0,0.020866
2022/03/21 01:00:00.004,n,271,2.52,2.16,2.88,20.8,67.1,1015.12,0,0,0,0,0.014801
2022/03/21 01:01:00.001,n,262,3.6,1.8,4.32,20.7,67,1015.12,0,0,0,0,0.022621
2022/03/21 01:02:00.000,n,295,5.4,3.96,6.12,20.7,66.9,1015.12,0,0,0,0,0.01915
2022/03/21 01:03:00.011,n,263,2.88,2.52,3.6,20.7,66.9,1015.12,0,0,0,0,0.016518
2022/03/21 01:04:00.000,n,264,4.68,3.96,5.04,20.7,66.699996,1015.12,0,0,0,0,0.01915
2022/03/21 01:05:00.000,n,219,2.88,2.16,4.68,20.7,66.699996,1015.12,0,0,0,0,0.016518
2022/03/21 01:06:00.002,n,262,5.04,3.96,6.12,20.7,66.6,1015.12,0,0,0,0,0.02346
2022/03/21 01:07:00.000,n,248,2.16,1.8,2.88,20.7,66.6,1015.12,0,0,0,0,0.030441
2022/03/21 01:08:00.000,n,258,4.32,3.96,4.68,20.7,66.699996,1015.12,0,0,0,0,0.029564
2022/03/21 01:09:00.009,n,272,3.6,2.88,3.96,20.7,66.5,1015.02,0,0,0,0,0.028687
2022/03/21 01:10:00.006,n,276,4.32,3.96,4.68,20.7,66.4,1015.02,0,0,0,0,0.026093
2022/03/21 01:11:00.003,n,263,1.8,0.72,2.52,20.7,66.300004,1015.02,0,0,0,0,0.029564
2022/03/21 01:12:00.000,n,157,3.24,0.72,7.92,20.7,66.699996,1015.02,0,0,0,0,0.029564
2022/03/21 01:13:00.000,n,275,2.16,1.8,2.16,20.7,66.6,1015.02,0,0,0,0,0.026093
2022/03/21 01:14:00.000,n,249,3.96,3.24,4.32,20.7,66.4,1015.02,0,0,0,0,0.024338
2022/03/21 01:15:00.000,n,247,4.68,4.32,5.04,20.7,66.4,1015.02,0,0,0,0,0.025215
2022/03/21 01:16:00.000,n,266,3.96,3.6,4.68,20.7,66.4,1015.02,0,0,0,0,0.027809
2022/03/21 01:17:00.004,n,273,5.4,3.6,6.12,20.7,66.300004,1015.02,0,0,0,0,0.02697
2022/03/21 01:18:00.001,n,273,3.96,3.6,4.68,20.7,66.199996,1015.02,0,0,0,0,0.02346
2022/03/21 01:19:00.000,n,264,4.32,3.6,5.04,20.7,66.199996,1015.02,0,0,0,0,0.021744
2022/03/21 01:20:00.011,n,338,1.8,1.44,2.52,20.7,66.199996,1015.02,0,0,0,0,0.024338
2022/03/21 01:21:00.008,n,284,1.8,1.44,2.16,20.7,66.300004,1015.02,0,0,0,0,0.020866
2022/03/21 01:22:00.000,n,263,5.4,4.68,5.4,20.7,66.300004,1015.02,0,0,0,0,0.022621
2022/03/21 01:23:00.000,n,274,4.32,3.96,5.04,20.7,66.300004,1014.92,0,0,0,0,0.026093
2022/03/21 01:24:00.001,n,249,3.6,0.72,5.4,20.7,66.300004,1014.92,0,0,0,0,0.021744
2022/03/21 01:25:00.000,n,253,2.52,1.8,2.88,20.7,66.300004,1014.92,0,0,0,0,0.020027
2022/03/21 01:26:00.000,n,233,2.52,1.8,3.96,20.7,66.4,1014.92,0,0,0,0,0.024338
2022/03/21 01:27:00.010,n,259,2.52,1.44,3.96,20.8,66.4,1014.92,0,0,0,0,0.02346
2022/03/21 01:28:00.007,n,247,3.6,2.52,3.96,20.8,66.5,1014.92,0,0,0,0,0.021744
2022/03/21 01:29:00.004,n,269,7.92,6.48,8.64,20.7,66.5,1014.92,0,0,0,0,0.02346
2022/03/21 01:30:00.001,n,252,3.6,2.16,5.04,20.7,66.4,1014.92,0,0,0,0,0.021744
2022/03/21 01:31:00.000,n,258,3.96,3.6,5.04,20.7,66.5,1014.92,0,0,0,0,0.022621
2022/03/21 01:32:00.000,n,296,3.6,2.88,5.04,20.7,66.6,1014.92,0,0,0,0,0.024338
2022/03/21 01:33:00.000,n,275,2.88,2.52,3.24,20.7,66.699996,1014.82,0,0,0,0,0.02346
2022/03/21 01:34:00.005,n,205,1.8,0.72,4.32,20.7,66.6,1014.82,0,0,0,0,0.022621
2022/03/21 01:35:00.003,n,284,1.8,0.36,3.24,20.7,66.800004,1014.82,0,0,0,0,0.022621
2022/03/21 01:36:00.000,n,279,1.8,1.44,2.16,20.7,66.800004,1014.82,0,0,0,0,0.02346
2022/03/21 01:37:00.013,n,268,1.44,1.08,1.8,20.7,66.9,1014.82,0,0,0,0,0.02346
2022/03/21 01:38:00.009,n,253,1.44,1.08,1.8,20.6,66.9,1014.82,0,0,0,0,0.02697
2022/03/21 01:39:00.008,n,277,3.24,3.24,3.6,20.7,67.7,1014.82,0,0,0,0,0.024338
2022/03/21 01:40:00.000,n,308,1.8,1.8,2.16,20.7,67.1,1014.82,0,0,0,0,0.022621
2022/03/21 01:41:00.001,n,295,2.16,1.44,2.88,20.6,67.1,1014.82,0,0,0,0,0.024338
2022/03/21 01:42:00.000,n,257,1.8,1.8,2.16,20.6,67,1014.82,0,0,0,0,0.026093
2022/03/21 01:43:00.000,n,267,3.6,3.24,3.96,20.6,66.9,1014.72,0,0,0,0,0.022621
2022/03/21 01:44:00.008,n,259,2.16,1.44,2.52,20.6,66.9,1014.72,0,0,0,0,0.024338
2022/03/21 01:45:00.005,n,257,2.88,2.52,3.24,20.6,67,1014.72,0,0,0,0,0.025215
2022/03/21 01:46:00.002,n,257,2.52,2.16,2.52,20.6,67.1,1014.72,0,0,0,0,0.021744
2022/03/21 01:47:00.000,n,249,3.96,2.52,5.4,20.6,67,1014.72,0,0,0,0,0.022621
2022/03/21 01:48:00.013,n,242,4.32,1.08,5.4,20.6,67.1,1014.72,0,0,0,0,0.01915
2022/03/21 01:49:00.000,n,255,3.6,2.52,5.04,20.6,67.1,1014.72,0,0,0,0,0.01915
2022/03/21 01:50:00.000,n,251,2.16,2.16,2.52,20.6,67.2,1014.72,0,0,0,0,0.021744
2022/03/21 01:51:00.004,n,260,2.16,1.8,2.52,20.5,67.3,1014.62,0,0,0,0,0.018234
2022/03/21 01:52:00.001,n,252,4.32,3.96,4.68,20.5,67.4,1014.62,0,0,0,0,0.021744
2022/03/21 01:53:00.000,n,230,1.44,1.44,1.8,20.5,67.5,1014.62,0,0,0,0,0.020027
2022/03/21 01:54:00.000,n,216,0.36,0.36,0.36,20.5,67.6,1014.62,0,0,0,0,0.018234
2022/03/21 01:55:00.009,n,272,1.08,1.08,1.08,20.5,67.7,1014.62,0,0,0,0,0.020866
2022/03/21 01:56:00.007,n,301,4.68,4.32,5.04,20.5,67.9,1014.62,0,0,0,0,0.02346
2022/03/21 01:57:00.004,n,244,4.32,3.96,4.32,20.5,67.9,1014.62,0,0,0,0,0.020866
2022/03/21 01:58:00.001,n,265,2.88,2.52,2.88,20.5,68,1014.62,0,0,0,0,0.01915
2022/03/21 01:59:00.000,n,269,4.32,3.24,5.04,20.5,68,1014.62,0,0,0,0,0.02346
2022/03/21 02:00:00.000,n,263,4.68,3.6,5.76,20.4,68.1,1014.62,0,0,0,0,0.020027
2022/03/21 02:01:00.000,n,247,2.88,2.52,3.24,20.4,68.2,1014.62,0,0,0,0,0.020027
2022/03/21 02:02:00.005,n,256,5.4,4.68,6.12,20.4,68.2,1014.52,0,0,0,0,0.020866
2022/03/21 02:03:00.003,n,265,1.8,1.44,1.8,20.4,68.2,1014.62,0,0,0,0,0.020027
2022/03/21 02:04:00.000,n,226,1.8,1.44,3.6,20.4,68.4,1014.52,0,0,0,0,0.020027
2022/03/21 02:05:00.013,n,272,3.24,2.52,3.6,20.4,68.4,1014.52,0,0,0,0,0.01915
2022/03/21 02:06:00.010,n,241,2.52,1.8,2.88,20.4,68.2,1014.52,0,0,0,0,0.020866
2022/03/21 02:07:00.000,n,236,0.36,0,0.72,20.4,68.5,1014.52,0,0,0,0,0.020866
2022/03/21 02:08:00.000,n,251,2.16,1.44,2.52,20.4,68.4,1014.52,0,0,0,0,0.013924
2022/03/21 02:09:00.002,n,223,1.8,1.08,2.88,20.4,68.5,1014.42,0,0,0,0,0.016518
2022/03/21 02:10:00.000,n,271,2.16,1.8,2.52,20.4,68.6,1014.42,0,0,0,0,0.018234
2022/03/21 02:11:00.000,n,227,1.08,1.08,1.44,20.3,68.7,1014.42,0,0,0,0,0.017395
2022/03/21 02:12:00.008,n,280,4.68,4.32,5.76,20.3,68.9,1014.42,0,0,0,0,0.020027
2022/03/21 02:13:00.006,n,272,2.52,1.44,3.24,20.3,69.2,1014.42,0,0,0,0,0.01915
2022/03/21 02:14:00.014,n,153,1.8,1.08,2.52,20.3,69.4,1014.42,0,0,0,0,0.022621
2022/03/21 02:15:00.012,n,271,2.16,1.8,2.16,20.3,69.5,1014.42,0,0,0,0,0.02697
2022/03/21 02:16:00.000,n,285,1.8,1.44,1.8,20.3,69.6,1014.42,0,0,0,0,0.025253
2022/03/21 02:17:00.000,n,310,1.44,1.44,1.8,20.3,69.9,1014.32,0,0,0,0,0.024376
2022/03/21 02:18:00.004,n,260,2.16,1.44,2.52,20.2,69.7,1014.42,0,0,0,0,0.024376
2022/03/21 02:19:00.001,n,319,1.44,1.08,2.16,20.2,70,1014.42,0,0,0,0,0.022621
2022/03/21 02:20:00.000,n,257,1.08,0.72,1.44,20.2,70.8,1014.32,0,0,0,0,0.024376
2022/03/21 02:21:00.000,n,255,1.44,1.08,2.16,20.2,70.3,1014.32,0,0,0,0,0.023499
2022/03/21 02:22:00.009,n,284,1.8,1.44,2.16,20.2,70.3,1014.32,0,0,0,0,0.024376
2022/03/21 02:23:00.006,n,273,3.6,2.88,4.32,20.2,70.4,1014.32,0,0,0,0,0.023499
2022/03/21 02:24:00.004,n,273,3.24,2.88,3.96,20.2,70.6,1014.32,0,0,0,0,0.024376
2022/03/21 02:25:00.000,n,247,3.6,3.24,3.96,20.2,70.7,1014.32,0,0,0,0,0.022621
2022/03/21 02:26:00.000,n,293,2.16,1.44,3.6,20.1,71,1014.42,0,0,0,0,0.021744
2022/03/21 02:27:00.000,n,227,2.88,2.52,3.24,20.1,70.9,1014.42,0,0,0,0,0.01915
2022/03/21 02:28:00.000,n,283,3.96,3.24,4.68,20.1,70.8,1014.42,0,0,0,0,0.022621
2022/03/21 02:29:00.006,n,267,5.04,3.6,5.76,20.1,70.8,1014.42,0,0,0,0,0.020866
2022/03/21 02:30:00.003,n,287,3.24,2.88,3.96,20.1,70.6,1014.42,0,0,0,0,0.020027
2022/03/21 02:31:00.000,n,210,1.08,1.08,1.8,20,70.7,1014.42,0,0,0,0,0.021744
2022/03/21 02:32:00.013,n,263,2.88,2.52,3.24,20,70.9,1014.42,0,0,0,0,0.016518
2022/03/21 02:33:00.010,n,270,3.24,2.52,3.6,20,70.9,1014.32,0,0,0,0,0.018272
2022/03/21 02:34:00.000,n,289,2.52,1.44,4.32,20,71.1,1014.32,0,0,0,0,0.018272
2022/03/21 02:35:00.000,n,279,2.16,1.44,3.24,20,71.3,1014.32,0,0,0,0,0.017395
2022/03/21 02:36:00.002,n,276,2.52,2.52,2.88,20,71.5,1014.32,0,0,0,0,0.017395
2022/03/21 02:37:00.000,n,274,3.24,2.88,3.96,20,71.7,1014.32,0,0,0,0,0.014801
2022/03/21 02:38:00.000,n,261,2.88,2.88,3.24,20,71.9,1014.42,0,0,0,0,0.020027
2022/03/21 02:39:00.009,n,190,1.44,1.08,1.44,20,72.4,1014.32,0,0,0,0,0.013924
2022/03/21 02:40:00.006,n,220,2.52,1.8,2.88,19.9,72.3,1014.32,0,0,0,0,0.015678
2022/03/21 02:41:00.003,n,130,3.96,3.24,4.68,19.9,72.1,1014.32,0,0,0,0,0.014801
2022/03/21 02:42:00.001,n,290,2.88,2.52,2.88,19.9,72.2,1014.32,0,0,0,0,0.015678
2022/03/21 02:43:00.000,n,321,0.72,0.36,0.72,19.9,72.4,1014.32,0,0,0,0,0.013046
2022/03/21 02:44:00.000,n,245,4.32,4.32,4.32,19.9,72.4,1014.32,0,0,0,0,0.014801
2022/03/21 02:45:00.000,n,238,2.88,2.52,3.6,19.9,72.8,1014.32,0,0,0,0,0.011292
2022/03/21 02:46:00.005,n,148,3.96,3.6,4.32,19.9,72.9,1014.22,0,0,0,0,0.014801
2022/03/21 02:47:00.003,n,143,3.96,3.6,4.32,19.8,73.1,1014.22,0,0,0,0,0.013924
2022/03/21 02:48:00.000,n,232,1.8,1.44,2.52,19.8,73.1,1014.22,0,0,0,0,0.009575
2022/03/21 02:49:00.000,n,99,1.08,0,1.44,19.8,73.2,1014.22,0,0,0,0,0.013046
2022/03/21 02:50:00.011,n,216,1.8,1.44,2.52,19.8,73.1,1014.22,0,0,0,0,0.012169
2022/03/21 02:51:00.008,n,231,1.8,1.44,1.8,19.8,73.1,1014.22,0,0,0,0,0.013046
2022/03/21 02:52:00.000,n,266,2.88,2.52,3.6,19.7,73.5,1014.22,0,0,0,0,0.013046
2022/03/21 02:53:00.002,n,271,5.4,5.04,5.76,19.7,73.1,1014.22,0,0,0,0,0.013046
2022/03/21 02:54:00.000,n,267,2.16,1.08,3.24,19.6,73.2,1014.22,0,0,0,0,0.015678
2022/03/21 02:55:00.000,n,264,6.84,6.12,7.2,19.6,73.3,1014.22,0,0,0,0,0.013924
2022/03/21 02:56:00.009,n,261,2.16,1.8,2.52,19.6,73.6,1014.22,0,0,0,0,0.013046
2022/03/21 02:57:00.006,n,261,0.72,0.36,0.72,19.5,73.9,1014.22,0,0,0,0,0.00782
2022/03/21 02:58:00.003,n,307,0.36,0.36,0.72,19.5,73.9,1014.22,0,0,0,0,0.026093
2022/03/21 02:59:00.013,n,294,1.8,1.44,2.52,19.5,74,1014.22,0,0,0,0,0.027809
2022/03/21 03:00:00.012,n,287,1.08,0.72,1.08,19.5,74.2,1014.22,0,0,0,0,0.029564
2022/03/21 03:01:00.000,n,254,2.52,1.8,3.6,19.5,74.3,1014.22,0,0,0,0,0.026093
2022/03/21 03:02:00.000,n,282,7.92,6.84,9,19.4,74.1,1014.22,0,0,0,0,0.027809
2022/03/21 03:03:00.000,n,276,5.76,3.96,6.48,19.4,74.3,1014.22,0,0,0,0,0.02697
2022/03/21 03:04:00.002,n,289,3.24,2.88,3.6,19.4,74.4,1014.22,0,0,0,0,0.026093
2022/03/21 03:05:00.000,n,276,3.96,2.88,4.68,19.3,74.5,1014.12,0,0,0,0,0.024338
2022/03/21 03:06:00.000,n,268,5.04,3.96,6.48,19.3,74.5,1014.12,0,0,0,0,0.024338
2022/03/21 03:07:00.010,n,280,5.4,4.68,5.76,19.3,74.7,1014.12,0,0,0,0,0.020866
2022/03/21 03:08:00.007,n,232,1.8,1.44,2.16,19.3,74.8,1014.12,0,0,0,0,0.021744
2022/03/21 03:09:00.005,n,243,7.92,6.48,8.28,19.3,74.6,1014.12,0,0,0,0,0.02346
2022/03/21 03:10:00.002,n,271,3.6,3.24,4.32,19.2,74.5,1014.12,0,0,0,0,0.019989
2022/03/21 03:11:00.000,n,312,1.44,0.36,2.88,19.2,75,1014.12,0,0,0,0,0.021744
2022/03/21 03:12:00.000,n,266,3.96,3.24,3.96,19.2,74.5,1014.12,0,0,0,0,0.020866
2022/03/21 03:13:00.000,n,314,1.8,1.08,3.24,19.2,74.4,1014.12,0,0,0,0,0.019112
2022/03/21 03:14:00.007,n,281,4.32,3.24,4.68,19.1,74.4,1014.12,0,0,0,0,0.020866
2022/03/21 03:15:00.005,n,245,2.88,2.88,3.24,19.1,74.5,1014.12,0,0,0,0,0.017395
2022/03/21 03:16:00.002,n,244,4.68,4.32,5.04,19.1,74.5,1014.12,0,0,0,0,0.021744
2022/03/21 03:17:00.000,n,246,4.32,3.6,5.4,19.1,74.6,1014.12,0,0,0,0,0.018234
2022/03/21 03:18:00.011,n,267,5.4,4.68,6.12,19.1,74.6,1014.12,0,0,0,0,0.019989
2022/03/21 03:19:00.000,n,272,6.84,5.76,7.2,19.1,74.5,1014.12,0,0,0,0,0.017395
2022/03/21 03:20:00.000,n,218,2.88,2.16,3.6,19.1,74.5,1014.12,0,0,0,0,0.019989
2022/03/21 03:21:00.003,n,277,1.8,1.44,2.16,19,74.8,1014.12,0,0,0,0,0.016518
2022/03/21 03:22:00.000,n,259,5.04,3.96,7.2,19,74.5,1014.12,0,0,0,0,0.013008
2022/03/21 03:23:00.000,n,239,2.88,2.52,3.6,19,74.6,1014.12,0,0,0,0,0.027847
2022/03/21 03:24:00.005,n,285,5.76,4.68,6.12,19,74.7,1014.12,0,0,0,0,0.030441
2022/03/21 03:25:00.003,n,250,5.76,1.44,7.2,19,74.7,1014.12,0,0,0,0,0.027847
2022/03/21 03:26:00.000,n,242,3.96,2.16,5.4,19,74.7,1014.12,0,0,0,0,0.030441
2022/03/21 03:27:00.013,n,291,4.68,4.32,5.04,19,74.7,1014.12,0,0,0,0,0.027847
2022/03/21 03:28:00.000,n,350,0.36,0.36,0.72,19,75.3,1014.12,0,0,0,0,0.031319
2022/03/21 03:29:00.000,n,255,2.88,2.52,2.88,19,75,1014.12,0,0,0,0,0.026093
2022/03/21 03:30:00.000,n,270,2.88,2.16,3.6,19,75.2,1014.12,0,0,0,0,0.025253
2022/03/21 03:31:00.003,n,245,3.6,3.24,3.96,19,75,1014.12,0,0,0,0,0.029564
2022/03/21 03:32:00.001,n,266,2.52,1.8,2.88,19,74.9,1014.12,0,0,0,0,0.02697
2022/03/21 03:33:00.000,n,267,5.76,5.4,6.48,19,74.8,1014.12,0,0,0,0,0.026093
2022/03/21 03:34:00.010,n,267,3.24,2.88,4.32,19,74.9,1014.12,0,0,0,0,0.027847
2022/03/21 03:35:00.007,n,252,3.24,1.8,4.32,19,74.9,1014.12,0,0,0,0,0.028687
2022/03/21 03:36:00.005,n,205,0.72,0.72,1.08,19,75.1,1014.12,0,0,0,0,0.027847
2022/03/21 03:37:00.000,n,285,2.88,2.52,3.24,19,75.1,1014.02,0,0,0,0,0.02346
2022/03/21 03:38:00.000,n,279,2.52,2.16,2.88,19,75.4,1014.02,0,0,0,0,0.026093
2022/03/21 03:39:00.000,n,301,3.6,3.24,3.96,19,75.4,1014.02,0,0,0,0,0.026093
2022/03/21 03:40:00.000,n,224,2.52,1.8,3.6,19,75.2,1014.02,0,0,0,0,0.025253
2022/03/21 03:41:00.007,n,250,4.32,3.96,4.68,18.9,75.2,1014.02,0,0,0,0,0.02346
2022/03/21 03:42:00.004,n,229,0.72,0.36,1.08,18.9,75.2,1014.02,0,0,0,0,0.024338
2022/03/21 03:43:00.001,n,272,5.76,4.68,6.84,18.9,75.4,1014.02,0,0,0,0,0.025253
2022/03/21 03:44:00.014,n,258,1.44,1.08,2.16,18.9,75.7,1014.02,0,0,0,0,0.022621
2022/03/21 03:45:00.011,n,198,6.48,5.4,8.64,18.9,75.6,1014.02,0,0,0,0,0.022621
2022/03/21 03:46:00.000,n,267,2.52,1.08,3.6,18.9,75.6,1014.02,0,0,0,0,0.019112
2022/03/21 03:47:00.000,n,264,3.6,2.16,4.32,18.9,75.5,1014.02,0,0,0,0,0.019112
2022/03/21 03:48:00.002,n,256,7.92,6.84,9,18.9,75.5,1013.92,0,0,0,0,0.022621
2022/03/21 03:49:00.000,n,254,3.24,1.8,3.96,18.9,75.6,1013.92,0,0,0,0,0.02346
2022/03/21 03:50:00.000,n,291,2.16,1.08,2.52,18.8,75.7,1013.92,0,0,0,0,0.020027
2022/03/21 03:51:00.010,n,271,2.88,1.8,3.96,18.8,75.9,1013.92,0,0,0,0,0.020866
2022/03/21 03:52:00.007,n,329,1.08,0.72,1.44,18.8,75.9,1013.92,0,0,0,0,0.018272
2022/03/21 03:53:00.004,n,335,2.52,1.8,3.6,18.8,76.4,1013.92,0,0,0,0,0.018272
2022/03/21 03:54:00.001,n,275,5.4,3.96,7.56,18.8,76,1013.92,0,0,0,0,0.025215
2022/03/21 03:55:00.000,n,270,2.52,2.52,2.52,18.8,75.9,1013.92,0,0,0,0,0.028687
2022/03/21 03:56:00.000,n,216,2.88,2.16,3.6,18.8,76,1013.92,0,0,0,0,0.033913
2022/03/21 03:57:00.000,n,201,1.44,0.36,2.16,18.8,76.1,1013.92,0,0,0,0,0.032196
2022/03/21 03:58:00.004,n,253,1.8,1.08,2.16,18.8,76.2,1013.92,0,0,0,0,0.027809
2022/03/21 03:59:00.002,n,282,3.6,2.88,3.96,18.8,76.2,1013.92,0,0,0,0,0.031319
2022/03/21 04:00:00.000,n,222,1.08,0.36,2.16,18.8,76.3,1013.92,0,0,0,0,0.030441
2022/03/21 04:01:00.011,n,261,3.6,2.88,3.96,18.8,76.4,1013.92,0,0,0,0,0.030441
2022/03/21 04:02:00.009,n,301,1.8,0.72,2.52,18.8,76.3,1013.92,0,0,0,0,0.027809
2022/03/21 04:03:00.005,n,254,3.24,2.52,3.96,18.8,76.4,1013.92,0,0,0,0,0.028687
2022/03/21 04:04:00.000,n,311,3.6,2.88,4.32,18.7,76.4,1013.92,0,0,0,0,0.029602
2022/03/21 04:05:00.000,n,246,2.16,1.44,2.52,18.7,76.5,1013.92,0,0,0,0,0.029602
2022/03/21 04:06:00.000,n,240,2.52,1.08,3.24,18.7,76.6,1013.92,0,0,0,0,0.024338
2022/03/21 04:07:00.000,n,254,4.68,3.96,5.04,18.7,76.6,1013.92,0,0,0,0,0.027809
2022/03/21 04:08:00.006,n,272,2.88,2.52,3.6,18.7,76.7,1013.92,0,0,0,0,0.030441
2022/03/21 04:09:00.004,n,307,3.24,2.52,3.96,18.7,76.8,1013.92,0,0,0,0,0.026093
2022/03/21 04:10:00.000,n,165,0.72,0.36,1.44,18.7,76.8,1013.92,0,0,0,0,0.028687
2022/03/21 04:11:00.014,n,280,1.8,0.72,2.52,18.7,76.7,1013.92,0,0,0,0,0.02697
2022/03/21 04:12:00.011,n,181,0.36,0.36,0.72,18.7,77.2,1013.92,0,0,0,0,0.02697
2022/03/21 04:13:00.000,n,274,4.32,3.96,4.68,18.7,76.9,1013.92,0,0,0,0,0.027809
2022/03/21 04:14:00.000,n,190,1.44,0.72,2.16,18.7,77.1,1013.92,0,0,0,0,0.025215
2022/03/21 04:15:00.002,n,285,3.6,2.88,3.96,18.7,77,1013.92,0,0,0,0,0.02697
2022/03/21 04:16:00.000,n,175,1.08,0.36,1.8,18.7,77.1,1013.92,0,0,0,0,0.027809
2022/03/21 04:17:00.000,n,248,2.16,1.8,2.52,18.6,77.1,1013.92,0,0,0,0,0.024338
2022/03/21 04:18:00.010,n,0,0.72,0.36,1.08,18.6,77.1,1013.92,0,0,0,0,0.02697
2022/03/21 04:19:00.007,n,297,1.08,1.08,1.8,18.6,77.2,1013.92,0,0,0,0,0.027809
2022/03/21 04:20:00.005,n,265,2.52,1.08,3.24,18.6,77.5,1014.02,0,0,0,0,0.024338
2022/03/21 04:21:00.003,n,179,0.72,0.72,1.08,18.6,77.3,1014.02,0,0,0,0,0.024338
2022/03/21 04:22:00.000,n,236,1.44,1.08,1.8,18.6,77.3,1014.02,0,0,0,0,0.026093
2022/03/21 04:23:00.000,n,95,1.44,0.36,2.52,18.6,77.4,1014.02,0,0,0,0,0.02346
2022/03/21 04:24:00.000,n,167,1.8,0.72,2.52,18.6,77.5,1014.02,0,0,0,0,0.020866
2022/03/21 04:25:00.000,n,284,0.72,0,1.08,18.7,77.5,1014.02,0,0,0,0,0.02346
2022/03/21 04:26:00.004,n,169,1.08,0.36,1.8,18.7,77.4,1014.02,0,0,0,0,0.02346
2022/03/21 04:27:00.001,n,245,0.36,0,0.72,18.7,77.4,1014.02,0,0,0,0,0.020866
2022/03/21 04:28:00.000,n,156,3.24,1.8,4.32,18.7,77.5,1014.02,0,0,0,0,0.020027
2022/03/21 04:29:00.012,n,177,3.24,2.52,3.96,18.7,77.6,1014.12,0,0,0,0,0.02346
2022/03/21 04:30:00.011,n,164,2.52,1.44,3.6,18.6,77.7,1014.12,0,0,0,0,0.021744
2022/03/21 04:31:00.000,n,255,0.72,0.36,1.08,18.6,77.8,1014.12,0,0,0,0,0.022621
2022/03/21 04:32:00.000,n,109,1.44,0.72,2.52,18.6,78,1014.12,0,0,0,0,0.019112
2022/03/21 04:33:00.002,n,272,3.24,1.8,4.32,18.6,77.9,1014.12,0,0,0,0,0.025215
2022/03/21 04:34:00.000,n,196,2.88,2.52,3.6,18.6,78,1014.12,0,0,0,0,0.025215
2022/03/21 04:35:00.000,n,180,2.52,1.44,3.24,18.6,77.9,1014.12,0,0,0,0,0.022621
2022/03/21 04:36:00.009,n,146,1.08,0.36,1.8,18.6,77.8,1014.12,0,0,0,0,0.020866
2022/03/21 04:37:00.006,n,185,2.88,2.88,2.88,18.6,77.9,1014.12,0,0,0,0,0.022621
2022/03/21 04:38:00.004,n,279,2.88,2.16,3.6,18.6,78,1014.12,0,0,0,0,0.018234
2022/03/21 04:39:00.001,n,273,2.52,1.44,2.88,18.6,78,1014.12,0,0,0,0,0.020866
2022/03/21 04:40:00.000,n,240,2.16,0.36,3.6,18.6,78.1,1014.22,0,0,0,0,0.019112
2022/03/21 04:41:00.000,n,299,3.24,2.52,4.32,18.5,78,1014.22,0,0,0,0,0.025291
2022/03/21 04:42:00.000,n,83,0.72,0.36,1.44,18.5,78,1014.22,0,0,0,0,0.030518
2022/03/21 04:43:00.003,n,337,1.08,0.72,1.08,18.5,78.2,1014.22,0,0,0,0,0.032234
2022/03/21 04:44:00.000,n,276,1.08,0.72,1.44,18.5,78.1,1014.22,0,0,0,0,0.027008
2022/03/21 04:45:00.000,n,77,0.72,0.36,1.08,18.5,78.3,1014.22,0,0,0,0,0.027885
2022/03/21 04:46:00.010,n,32,0.72,0.36,1.44,18.5,78.3,1014.22,0,0,0,0,0.027008
2022/03/21 04:47:00.007,n,22,0.36,0,0.36,18.5,78.2,1014.22,0,0,0,0,0.027885
2022/03/21 04:48:00.004,n,262,2.16,0.72,2.52,18.5,78.2,1014.22,0,0,0,0,0.026169
2022/03/21 04:49:00.002,n,184,3.6,3.24,4.32,18.5,78.3,1014.22,0,0,0,0,0.029602
2022/03/21 04:50:00.000,n,316,2.16,1.8,2.88,18.5,78.3,1014.22,0,0,0,0,0.028725
2022/03/21 04:51:00.000,n,357,1.08,0.72,1.8,18.5,78.5,1014.22,0,0,0,0,0.027008
2022/03/21 04:52:00.000,n,300,2.16,1.08,2.88,18.5,78.6,1014.22,0,0,0,0,0.028725
2022/03/21 04:53:00.008,n,178,1.8,0.36,2.88,18.5,78.5,1014.22,0,0,0,0,0.029602
2022/03/21 04:54:00.005,n,17,0.72,0.36,1.08,18.5,78.5,1014.22,0,0,0,0,0.027008
2022/03/21 04:55:00.003,n,152,0.36,0,0.72,18.5,78.5,1014.22,0,0,0,0,0.029602